American Canyon, CA

11:41 AM PST on February 26, 2017 (GMT -0800)
Napa County

Weather History for KAPC - November, 2013

Change the Weather History Date:

Wednesday, November 6, 2013

  Actual Average Record
Temperature  
Mean Temperature 56 °F 54 °F  
Max Temperature 72 °F 67 °F 81 °F (2012)
Min Temperature 40 °F 40 °F 35 °F (1998)
Degree Days  
Heating Degree Days 9    
Month to date heating degree days 62  
Since 1 July heating degree days 372  
Cooling Degree Days 0    
Month to date cooling degree days 0  
Year to date cooling degree days 303  
Growing Degree Days 8 (Base 50)    
Moisture  
Dew Point 35 °F    
Average Humidity 45    
Maximum Humidity 65    
Minimum Humidity 25    
Precipitation  
Precipitation 0.00 in - 1.32 in (1922)
Month to date precipitation 0.00  
Year to date precipitation 2.82  
Since 1 July precipitation 0.85  
Sea Level Pressure  
Sea Level Pressure 30.19 in    
Wind  
Wind Speed 5 mph (ENE)    
Max Wind Speed 17 mph    
Max Gust Speed 31 mph    
Visibility 10 miles    
Events      
T = Trace of Precipitation, MM = Missing Value Source: NWS Daily Summary

Daily Weather History Graph

Daily Weather History Graph

Search for Another Location

Airport or City:

Trip Planner

Search our weather history database for the weather conditions in past years. The results will help you decide how hot, cold, wet, or windy it might be!

Date:

Astronomy

Nov. 06, 2013 Rise Set
Actual Time 6:40 AM PST 5:04 PM PST
Civil Twilight 6:13 AM PST 5:31 PM PST
Nautical Twilight 5:41 AM PST 6:03 PM PST
Astronomical Twilight 5:10 AM PST 6:34 PM PST
Moon 9:59 AM PST (11/6) 8:15 PM PST (11/6)
Length of Visible Light 11h 18m
Length of Day
10h 23m
Waxing Crescent, 14% of the Moon is Illuminated
Nov 6
Waxing Crescent
Nov 9
First Quarter
Nov 17
Full
Nov 25
Last Quarter
Dec 2
New

Hourly Weather History & Observations

Time (PST) Temp. Windchill Dew Point Humidity Pressure Visibility Wind Dir Wind Speed Gust Speed Precip Events Conditions
12:54 AM 48.0 °F - 34.0 °F 58% 30.20 in 10.0 mi North 4.6 mph - N/A   Clear
1:54 AM 45.0 °F - 33.1 °F 63% 30.20 in 10.0 mi Calm Calm - N/A   Clear
2:54 AM 48.9 °F - 34.0 °F 56% 30.19 in 10.0 mi Variable 3.5 mph - N/A   Clear
3:54 AM 48.0 °F - 34.0 °F 58% 30.20 in 10.0 mi NNE 3.5 mph - N/A   Clear
4:54 AM 46.0 °F 44.8 °F 34.0 °F 63% 30.21 in 10.0 mi NNW 3.5 mph - N/A   Clear
5:54 AM 44.1 °F - 33.1 °F 65% 30.21 in 10.0 mi Calm Calm - N/A   Clear
6:54 AM 44.1 °F - 34.0 °F 68% 30.22 in 10.0 mi Calm Calm - N/A   Clear
7:54 AM 55.0 °F - 36.0 °F 49% 30.23 in 10.0 mi ENE 3.5 mph - N/A   Clear
8:54 AM 59.0 °F - 35.1 °F 41% 30.25 in 10.0 mi East 10.4 mph 17.3 mph N/A   Clear
9:54 AM 63.0 °F - 35.1 °F 35% 30.24 in 10.0 mi East 12.7 mph 29.9 mph N/A   Clear
10:54 AM 66.0 °F - 36.0 °F 33% 30.24 in 10.0 mi East 10.4 mph 23.0 mph N/A   Clear
11:54 AM 69.1 °F - 36.0 °F 30% 30.22 in 10.0 mi North - - N/A   Clear
12:54 PM 71.1 °F - 33.1 °F 25% 30.19 in 10.0 mi North - - N/A   Clear
1:54 PM 71.1 °F - 33.1 °F 25% 30.17 in 10.0 mi ENE 12.7 mph - N/A   Clear
2:54 PM - - - N/A% 30.16 in 10.0 mi East 10.4 mph - N/A   Clear
3:54 PM 69.1 °F - 34.0 °F 27% 30.15 in 10.0 mi East 12.7 mph - N/A   Clear
4:54 PM 63.0 °F - 35.1 °F 35% 30.15 in 10.0 mi ESE 4.6 mph - N/A   Clear
5:54 PM 63.0 °F - 37.0 °F 38% 30.15 in 10.0 mi ENE 8.1 mph - N/A   Clear
6:54 PM 62.1 °F - 36.0 °F 38% 30.15 in 10.0 mi ENE 4.6 mph - N/A   Clear
7:54 PM 64.9 °F - 35.1 °F 33% 30.15 in 10.0 mi Calm Calm - N/A   Clear
8:54 PM 55.0 °F - 39.0 °F 55% 30.16 in 10.0 mi Calm Calm - N/A   Clear
9:54 PM 54.0 °F - 36.0 °F 51% 30.17 in 10.0 mi Variable 3.5 mph - N/A   Clear
10:54 PM 52.0 °F - 39.0 °F 61% 30.16 in 10.0 mi Calm Calm - N/A   Clear
11:54 PM 51.1 °F - 37.0 °F 59% 30.14 in 10.0 mi Calm Calm - N/A   Clear